When you browse on this site, cookies collect data to enhance your experience and personalize the content and advertising you see.
Visit our Privacy Policy to learn more. By continuing to use the site, you agree to this use of cookies and data.
  • In United Kingdom
  • List of Countries
  • For 7 days
  • Water Temperature
  • Weather Map
  • Weather Widgets
  • user-avatar
    Login

    Hourly Weather Plymouth

    Today, 7 April, Tuesday

    Time Temperature Precipitation Wind Pressure Humidity
    00:00 +5°C° 0 mm 2 mps 768 mmHg 83%
    01:00 +5°C° 0 mm 2 mps 769 mmHg 83%
    02:00 +5°C° 0 mm 2 mps 769 mmHg 83%
    03:00 +5°C° 0 mm 2 mps 769 mmHg 83%
    04:00 +4°C° 0 mm 3 mps 769 mmHg 84%
    05:00 +4°C° 0 mm 3 mps 769 mmHg 85%
    06:00 +4°C° 0 mm 3 mps 769 mmHg 86%
    07:00 +6°C° 0 mm 4 mps 769 mmHg 83%
    08:00 +8°C° 0 mm 4 mps 769 mmHg 80%
    09:00 +11°C° 0 mm 4 mps 769 mmHg 77%
    10:00 +12°C° 0 mm 5 mps 769 mmHg 75%
    11:00 +13°C° 0 mm 5 mps 769 mmHg 73%
    12:00 +14°C° 0 mm 6 mps 769 mmHg 71%
    13:00 +13°C° 0 mm 6 mps 768 mmHg 71%
    14:00 +13°C° 0 mm 6 mps 768 mmHg 71%
    15:00 +13°C° 0 mm 6 mps 768 mmHg 71%
    16:00 +11°C° 0 mm 6 mps 767 mmHg 75%
    17:00 +10°C° 0 mm 5 mps 767 mmHg 79%
    18:00 +9°C° 0 mm 5 mps 767 mmHg 82%
    19:00 +10°C° 0 mm 4 mps 767 mmHg 85%
    20:00 +10°C° 0 mm 4 mps 767 mmHg 88%
    21:00 +10°C° 0 mm 4 mps 767 mmHg 90%
    22:00 +10°C° 0.1 mm 3 mps 767 mmHg 90%
    23:00 +10°C° 0.1 mm 3 mps 767 mmHg 90%

    Tomorrow, 8 April, Wednesday

    Time Temperature Precipitation Wind Pressure Humidity
    00:00 +10°C° 0.1 mm 3 mps 767 mmHg 91%
    01:00 +10°C° 0 mm 3 mps 766 mmHg 91%
    02:00 +10°C° 0 mm 3 mps 766 mmHg 91%
    03:00 +9°C° 0 mm 3 mps 766 mmHg 91%
    04:00 +10°C° 0 mm 3 mps 766 mmHg 90%
    05:00 +10°C° 0 mm 3 mps 766 mmHg 90%
    06:00 +10°C° 0 mm 3 mps 766 mmHg 89%
    07:00 +11°C° 0 mm 3 mps 766 mmHg 87%
    08:00 +14°C° 0 mm 2 mps 766 mmHg 84%
    09:00 +15°C° 0 mm 2 mps 766 mmHg 82%
    10:00 +16°C° 0 mm 2 mps 766 mmHg 80%
    11:00 +17°C° 0 mm 2 mps 766 mmHg 78%
    12:00 +18°C° 0 mm 2 mps 766 mmHg 76%
    13:00 +18°C° 0.1 mm 2 mps 766 mmHg 77%
    14:00 +18°C° 0.1 mm 2 mps 765 mmHg 78%
    15:00 +18°C° 0.1 mm 2 mps 765 mmHg 80%
    16:00 +17°C° 0 mm 2 mps 765 mmHg 83%
    17:00 +16°C° 0 mm 1 mps 765 mmHg 87%
    18:00 +16°C° 0 mm 1 mps 765 mmHg 90%
    19:00 +14°C° 0 mm 1 mps 765 mmHg 92%
    20:00 +13°C° 0 mm 1 mps 765 mmHg 93%
    21:00 +12°C° 0 mm 1 mps 766 mmHg 95%
    22:00 +11°C° 0 mm 1 mps 766 mmHg 94%
    23:00 +11°C° 0 mm 1 mps 766 mmHg 94%

    Day after tomorrow, 9 April, Thursday

    Time Temperature Precipitation Wind Pressure Humidity
    00:00 +11°C° 0 mm 1 mps 766 mmHg 93%
    01:00 +11°C° 0 mm 1 mps 765 mmHg 93%
    02:00 +11°C° 0 mm 1 mps 765 mmHg 92%
    03:00 +9°C° 0 mm 2 mps 765 mmHg 91%
    04:00 +9°C° 0 mm 2 mps 765 mmHg 91%
    05:00 +10°C° 0 mm 2 mps 765 mmHg 90%
    06:00 +10°C° 0 mm 2 mps 765 mmHg 89%
    07:00 +11°C° 0 mm 3 mps 765 mmHg 86%
    08:00 +13°C° 0 mm 3 mps 765 mmHg 83%
    09:00 +15°C° 0 mm 4 mps 766 mmHg 79%
    10:00 +17°C° 0 mm 4 mps 766 mmHg 77%
    11:00 +18°C° 0 mm 4 mps 766 mmHg 75%
    12:00 +19°C° 0 mm 4 mps 766 mmHg 73%
    13:00 +19°C° 0 mm 4 mps 766 mmHg 73%
    14:00 +19°C° 0 mm 4 mps 765 mmHg 72%
    15:00 +18°C° 0 mm 4 mps 765 mmHg 72%
    16:00 +17°C° 0 mm 3 mps 765 mmHg 77%
    17:00 +16°C° 0 mm 3 mps 765 mmHg 81%
    18:00 +15°C° 0 mm 2 mps 765 mmHg 86%
    19:00 +14°C° 0 mm 2 mps 765 mmHg 88%
    20:00 +13°C° 0 mm 2 mps 765 mmHg 90%
    21:00 +10°C° 0 mm 2 mps 766 mmHg 92%
    22:00 +10°C° 0 mm 2 mps 766 mmHg 92%
    23:00 +10°C° 0 mm 2 mps 766 mmHg 92%

    10 April, Friday

    Time Temperature Precipitation Wind Pressure Humidity
    00:00 +10°C° 0 mm 2 mps 766 mmHg 92%
    01:00 +10°C° 0 mm 2 mps 765 mmHg 92%
    02:00 +10°C° 0 mm 2 mps 765 mmHg 92%
    03:00 +10°C° 0 mm 2 mps 765 mmHg 92%
    04:00 +10°C° 0 mm 2 mps 765 mmHg 92%
    05:00 +10°C° 0 mm 2 mps 765 mmHg 92%
    06:00 +11°C° 0 mm 3 mps 765 mmHg 92%
    07:00 +13°C° 0 mm 2 mps 765 mmHg 88%
    08:00 +15°C° 0 mm 2 mps 765 mmHg 85%
    09:00 +16°C° 0 mm 2 mps 765 mmHg 82%
    10:00 +17°C° 0 mm 2 mps 765 mmHg 80%
    11:00 +18°C° 0 mm 2 mps 765 mmHg 78%
    12:00 +19°C° 0 mm 2 mps 765 mmHg 76%
    13:00 +19°C° 0.1 mm 2 mps 765 mmHg 76%
    14:00 +19°C° 0.1 mm 2 mps 765 mmHg 77%
    15:00 +19°C° 0.1 mm 2 mps 765 mmHg 77%
    16:00 +19°C° 0.1 mm 1 mps 765 mmHg 81%
    17:00 +18°C° 0.1 mm 1 mps 765 mmHg 85%
    18:00 +15°C° 0.1 mm 0 mps 764 mmHg 89%
    19:00 +15°C° 0 mm 1 mps 765 mmHg 91%
    20:00 +14°C° 0 mm 1 mps 765 mmHg 92%
    21:00 +13°C° 0 mm 1 mps 765 mmHg 94%
    22:00 +12°C° 0 mm 1 mps 765 mmHg 93%
    23:00 +12°C° 0 mm 1 mps 765 mmHg 93%

    11 April, Saturday

    Time Temperature Precipitation Wind Pressure Humidity
    00:00 +12°C° 0 mm 1 mps 765 mmHg 93%
    01:00 +12°C° 0 mm 2 mps 765 mmHg 93%
    02:00 +12°C° 0 mm 2 mps 765 mmHg 93%
    03:00 +10°C° 0 mm 2 mps 765 mmHg 94%
    04:00 +10°C° 0 mm 2 mps 765 mmHg 93%
    05:00 +10°C° 0 mm 2 mps 765 mmHg 93%
    06:00 +10°C° 0 mm 2 mps 765 mmHg 93%
    07:00 +12°C° 0 mm 2 mps 765 mmHg 91%
    08:00 +14°C° 0 mm 2 mps 765 mmHg 88%
    09:00 +15°C° 0 mm 2 mps 765 mmHg 85%
    10:00 +16°C° 0 mm 2 mps 765 mmHg 83%
    11:00 +17°C° 0 mm 2 mps 765 mmHg 81%
    12:00 +17°C° 0 mm 2 mps 765 mmHg 79%
    13:00 +17°C° 0 mm 2 mps 765 mmHg 81%
    14:00 +17°C° 0 mm 3 mps 765 mmHg 82%
    15:00 +16°C° 0 mm 3 mps 765 mmHg 84%
    16:00 +14°C° 0 mm 3 mps 765 mmHg 85%
    17:00 +14°C° 0 mm 4 mps 765 mmHg 86%
    18:00 +13°C° 0 mm 4 mps 765 mmHg 87%
    19:00 +11°C° 0 mm 4 mps 765 mmHg 88%
    20:00 +10°C° 0 mm 4 mps 765 mmHg 89%
    21:00 +7°C° 0 mm 4 mps 765 mmHg 91%
    22:00 +7°C° 0 mm 4 mps 765 mmHg 91%
    23:00 +6°C° 0 mm 4 mps 765 mmHg 90%

    12 April, Sunday

    Time Temperature Precipitation Wind Pressure Humidity
    00:00 +6°C° 0 mm 4 mps 765 mmHg 90%
    01:00 +5°C° 0 mm 3 mps 764 mmHg 90%
    02:00 +5°C° 0 mm 3 mps 763 mmHg 90%
    03:00 +5°C° 0 mm 3 mps 763 mmHg 90%
    04:00 +5°C° 0 mm 3 mps 762 mmHg 91%
    05:00 +5°C° 0 mm 3 mps 762 mmHg 93%
    06:00 +4°C° 0 mm 3 mps 761 mmHg 94%
    07:00 +7°C° 0 mm 3 mps 761 mmHg 89%
    08:00 +9°C° 0 mm 2 mps 760 mmHg 84%
    09:00 +12°C° 0 mm 2 mps 760 mmHg 78%
    10:00 +13°C° 0 mm 2 mps 759 mmHg 76%
    11:00 +12°C° 0 mm 3 mps 759 mmHg 73%
    12:00 +13°C° 0 mm 3 mps 758 mmHg 70%
    13:00 +13°C° 0 mm 3 mps 758 mmHg 72%
    14:00 +13°C° 0 mm 3 mps 757 mmHg 74%
    15:00 +13°C° 0 mm 3 mps 757 mmHg 75%
    16:00 +12°C° 0.1 mm 3 mps 757 mmHg 78%
    17:00 +13°C° 0.1 mm 2 mps 756 mmHg 81%
    18:00 +13°C° 0.1 mm 1 mps 756 mmHg 85%
    19:00 +10°C° 0 mm 2 mps 756 mmHg 87%
    20:00 +9°C° 0 mm 2 mps 757 mmHg 90%
    21:00 +7°C° 0 mm 2 mps 757 mmHg 93%
    22:00 +8°C° 0 mm 3 mps 757 mmHg 94%
    23:00 +7°C° 0 mm 4 mps 758 mmHg 94%
    Show more